sat.trackr.live / text

‹ back to catalog

STARLINK-36366

NORAD 68122 · 2026-044X

PAYLOAD ACTIVE UNKNOWN

§ Identity

Operator
Country
US
Launch date
2026-03-08
Launch site
AFWTR
Launch vehicle
Mass (kg)
RCS (m²)

Purposes: comms

External: N2YO · Heavens-Above · Gunter

§ Orbital elements

Epoch: 2026-05-25T03:24:43.569216Z

Period
93.91 min
Inclination
97.2849°
Eccentricity
0.0001234
Mean motion
15.33448959 rev/d
Perigee alt
464.7 km
Apogee alt
466.4 km
Semi-major
6,843.7 km
B*
5.2541e-4
RAAN
105.8346°
Arg perigee
88.0482°
Mean anomaly
272.0902°
Rev number
1,330

§ Raw data

STARLINK-363661 68122U 26044X   26145.14217094  .00016927  00000+0  52541-3 0  99952 68122  97.2849 105.8346 0001234  88.0482 272.0902 15.33448959 13307

JSON: /api/v1/satellites/68122 · /tle

For live sub-satellite position, see the globe view (requires WebGL).

§ Visibility from observer

Set your observer location to see the next 7 days of passes ≥ 10°. The values pass through the URL so the page stays shareable.

No JS? Fill the form by hand. The geolocation button needs JavaScript.